Location: Bad Salzschlirf
(50.3750°N, 9.3000°E)
Time: 21:30:26
(UTC+01:00)

ISS - Pass Details

Date: 04 November 2024
Orbit: 406 x 419 km, 51.6° (Epoch: 08 November)

Event Time Altitude Azimuth Distance (km) Brightness Sun altitude
Exits shadow 06:03:12 11° 229° (SW) 1,428 -1.4 -12.4°
Maximum altitude 06:03:28 11° 224° (SW) 1,423 -1.4 -12.4°
Drops below altitude 10° 06:04:16 10° 210° (SSW) 1,462 -1.2 -12.2°
Sets 06:07:46 0° 170° (S) 2,315 0.3 -11.7°
